Weather History for Waterloo, IA

Change the Weather History Date:

Thursday, July 11, 2013

  Actual Average Record
Temperature  
Mean Temperature 70 °F 74 °F  
Max Temperature 83 °F 85 °F 106 °F (1936)
Min Temperature 56 °F 63 °F 46 °F (1898)
Degree Days  
Heating Degree Days 0 0  
Month to date heating degree days 0 0  
Since 1 June heating degree days 38 26  
Since 1 July heating degree days 0 0  
Cooling Degree Days 5 9  
Month to date cooling degree days 104 99  
Year to date cooling degree days 325 332  
Since 1 June cooling degree days 272 276  
Growing Degree Days 18 (Base 50)    
Moisture  
Dew Point 57 °F    
Average Humidity 69    
Maximum Humidity 100    
Minimum Humidity 37    
Precipitation  
Precipitation 0.00 in 0.16 in 2.42 in (1908)
Month to date precipitation 0.19 1.86  
Year to date precipitation 28.45 18.96  
Snow  
Snow 0.00 in 0.00 in - ()
Month to date snowfall 0.0 0.0  
Since 1 June snowfall 0.0 0.0  
Since 1 July snowfall 0.0 0.0  
Snow Depth 0.00 in    
Sea Level Pressure  
Sea Level Pressure 30.08 in    
Wind  
Wind Speed 5 mph (SE)    
Max Wind Speed 15 mph    
Max Gust Speed 20 mph    
Visibility 9 miles    
Events      
T = Trace of Precipitation, MM = Missing Value Source: NWS Daily Summary

Daily Weather History Graph

Daily Weather History Graph

Search for Another Location

Airport:

Trip Planner

Search our weather history database for the weather conditions in past years. The results will help you decide how hot, cold, wet, or windy it might be!

Date:

Astronomy

Jul. 11, 2013 Rise Set
Actual Time 5:42 AM CDT 8:47 PM CDT
Civil Twilight 5:08 AM CDT 9:21 PM CDT
Nautical Twilight 4:24 AM CDT 10:04 PM CDT
Astronomical Twilight 3:32 AM CDT 10:56 PM CDT
Moon 9:06 AM CDT (7/11) 10:22 PM CDT (7/11)
Length of Visible Light 16h 12m
Length of Day
15h 04m
Waxing Crescent, 11% of the Moon is Illuminated
Jul 11
Waxing Crescent
Jul 15
First Quarter
Jul 22
Full
Jul 29
Last Quarter
Aug 6
New

Hourly Weather History & Observations

Time (CDT) Temp. Heat Index Dew Point Humidity Pressure Visibility Wind Dir Wind Speed Gust Speed Precip Events Conditions
12:54 AM 62.1 °F - 60.1 °F 93% 30.07 in 10.0 mi Calm Calm - N/A   Clear
1:54 AM 61.0 °F - 59.0 °F 93% 30.07 in 9.0 mi Calm Calm - N/A   Clear
2:54 AM 59.0 °F - 57.9 °F 96% 30.08 in 7.0 mi Calm Calm - N/A   Clear
3:54 AM 57.9 °F - 55.9 °F 93% 30.08 in 8.0 mi Calm Calm - N/A   Clear
4:19 AM 57.2 °F - 57.2 °F 100% 30.09 in 1.5 mi Calm Calm - N/A   Clear
4:29 AM 57.2 °F - 57.2 °F 100% 30.10 in 4.0 mi Calm Calm - N/A   Clear
4:54 AM 57.0 °F - 55.9 °F 96% 30.09 in 5.0 mi Calm Calm - N/A   Clear
5:24 AM 57.2 °F - 55.4 °F 94% 30.10 in 4.0 mi Calm Calm - N/A   Partly Cloudy
5:54 AM 55.9 °F - 55.0 °F 97% 30.10 in 7.0 mi Calm Calm - N/A   Clear
6:54 AM 59.0 °F - 57.9 °F 96% 30.11 in 7.0 mi Calm Calm - N/A   Clear
7:54 AM 66.0 °F - 59.0 °F 78% 30.12 in 10.0 mi Calm Calm - N/A   Clear
8:54 AM 72.0 °F - 59.0 °F 64% 30.12 in 10.0 mi Calm Calm - N/A   Clear
9:54 AM 75.9 °F - 55.9 °F 50% 30.11 in 10.0 mi Calm Calm - N/A   Clear
10:54 AM 77.0 °F - 54.0 °F 45% 30.11 in 10.0 mi SE 6.9 mph - N/A   Clear
11:54 AM 78.1 °F - 52.0 °F 40% 30.12 in 10.0 mi East 5.8 mph - N/A   Clear
12:54 PM 80.1 °F 80.1 °F 55.0 °F 42% 30.10 in 10.0 mi ESE 6.9 mph - N/A   Clear
1:54 PM 81.0 °F 80.7 °F 55.0 °F 41% 30.08 in 10.0 mi Variable 4.6 mph - N/A   Clear
2:54 PM 81.0 °F 80.5 °F 54.0 °F 39% 30.08 in 10.0 mi ESE 11.5 mph - N/A   Clear
3:54 PM 82.0 °F 81.4 °F 55.0 °F 39% 30.07 in 10.0 mi SE 8.1 mph - N/A   Clear
4:54 PM 82.0 °F 81.3 °F 54.0 °F 38% 30.06 in 10.0 mi SE 11.5 mph - N/A   Clear
5:54 PM 81.0 °F 80.8 °F 55.9 °F 42% 30.06 in 10.0 mi SE 10.4 mph - N/A   Clear
6:54 PM 80.1 °F 80.2 °F 55.9 °F 43% 30.05 in 10.0 mi SSE 8.1 mph - N/A   Clear
7:54 PM 78.1 °F - 57.0 °F 48% 30.04 in 10.0 mi SSE 10.4 mph - N/A   Clear
8:54 PM 73.9 °F - 57.9 °F 57% 30.04 in 10.0 mi South 6.9 mph - N/A   Clear
9:54 PM 72.0 °F - 57.9 °F 61% 30.04 in 10.0 mi SE 5.8 mph - N/A   Clear
10:54 PM 70.0 °F - 59.0 °F 68% 30.05 in 10.0 mi SSE 4.6 mph - N/A   Clear
11:54 PM 69.1 °F - 59.0 °F 70% 30.05 in 10.0 mi SSE 5.8 mph - N/A   Clear